Location: Home
(42.5358°N, 72.7383°W)
Time: 16:07:59
(UTC-05:00)

SO-50 - Visible Passes

Search period start: 22 January 2022 00:00
Search period end: 01 February 2022 00:00
Orbit: 595 x 689 km, 64.6° (Epoch: 22 January)

Date Brightness Start Highest point End Pass type
(mag) Time Alt. Az. Time Alt. Az. Time Alt. Az.
22 Jan ? 04:46:16 12° S 04:46:16 12° S 04:46:38 10° S visible
22 Jan ? 18:51:36 10° SSW 18:56:00 64° SE 18:56:00 64° SE visible
22 Jan ? 20:33:33 10° W 20:33:40 10° W 20:33:40 10° W visible
23 Jan ? 17:37:50 10° SSE 17:40:51 18° ESE 17:43:18 12° ENE visible
23 Jan ? 19:16:22 10° SW 19:20:49 55° NW 19:20:58 54° NW visible
24 Jan ? 18:01:01 10° S 18:05:15 42° ESE 18:08:11 19° NE visible
24 Jan ? 19:41:58 10° WSW 19:45:51 27° NW 19:45:51 27° NW visible
25 Jan ? 18:25:22 10° SW 18:29:54 81° NW 18:32:58 21° NNE visible
25 Jan ? 20:08:29 10° WNW 20:10:38 15° NW 20:10:38 15° NW visible
26 Jan ? 18:50:35 10° WSW 18:54:48 36° NW 18:57:39 19° N visible
27 Jan ? 17:34:32 10° SSW 17:39:01 69° ESE 17:43:40 10° NE visible
27 Jan ? 19:16:38 10° W 19:19:57 19° NW 19:22:14 14° N visible
28 Jan ? 17:59:22 10° SW 18:03:48 52° NW 18:08:23 10° NNE visible
28 Jan ? 19:43:59 10° NW 19:45:21 11° NNW 19:46:45 10° NNW visible
29 Jan ? 18:25:01 10° W 18:28:50 25° NW 18:32:46 10° NNE visible
30 Jan ? 18:51:36 10° WNW 18:54:07 14° NW 18:56:41 10° N visible
31 Jan ? 17:33:35 10° WSW 17:37:45 35° NW 17:42:04 10° NNE visible
